This is the latest recevied weather packets stored in our database for station/object KM7BEO. If no packets are shown the sender has not sent any weather packets the latest 10 day(s).
| Time | Temp. | Humidity | Pressure | Rain* | Wind** | Luminosity | Snow |
|---|---|---|---|---|---|---|---|
| 1777873496 | 15° C | 63% | 1008.9 hPa | 0 mm | - | 0 W/m² | - |
| 1777873194 | 15° C | 61% | 1008.8 hPa | 0 mm | - | 0 W/m² | - |
| 1777872890 | 15.56° C | 61% | 1008.9 hPa | 0 mm | - | 0 W/m² | - |
| 1777872588 | 15.56° C | 58% | 1008.8 hPa | 0 mm | - | 0 W/m² | - |
| 1777872286 | 15.56° C | 59% | 1008.8 hPa | 0 mm | - | 0 W/m² | - |
| 1777871983 | 15.56° C | 60% | 1008.9 hPa | 0 mm | - | 0 W/m² | - |
| 1777871679 | 15.56° C | 58% | 1008.9 hPa | 0 mm | - | 0 W/m² | - |
| 1777871376 | 15.56° C | 58% | 1008.9 hPa | 0 mm | - | 0 W/m² | - |
| 1777871073 | 15.56° C | 60% | 1009 hPa | 0 mm | - | 0 W/m² | - |
| 1777870770 | 15.56° C | 61% | 1008.9 hPa | 0 mm | - | 0 W/m² | - |
| 1777870466 | 16.11° C | 57% | 1008.8 hPa | 0 mm | - | 0 W/m² | - |
| 1777870162 | 16.11° C | 58% | 1009 hPa | 0 mm | - | 0 W/m² | - |
| 1777869860 | 16.11° C | 59% | 1008.8 hPa | 0 mm | - | 0 W/m² | - |
| 1777869557 | 16.11° C | 58% | 1009 hPa | 0 mm | - | 0 W/m² | - |
| 1777869254 | 16.11° C | 59% | 1008.8 hPa | 0 mm | - | 0 W/m² | - |
| 1777868951 | 16.67° C | 59% | 1009 hPa | 0 mm | - | 0 W/m² | - |
| 1777868648 | 16.67° C | 55% | 1009 hPa | 0 mm | - | 0 W/m² | - |
| 1777868344 | 16.67° C | 58% | 1008.8 hPa | 0 mm | - | 0 W/m² | - |
| 1777868040 | 16.67° C | 60% | 1008.9 hPa | 0 mm | - | 0 W/m² | - |
| 1777867736 | 16.67° C | 61% | 1008.9 hPa | 0 mm | - | 0 W/m² | - |
| 1777867434 | 16.67° C | 60% | 1009 hPa | 0 mm | - | 0 W/m² | - |
| 1777867130 | 16.67° C | 61% | 1008.9 hPa | 0 mm | - | 0 W/m² | - |
| 1777866828 | 16.67° C | 61% | 1008.8 hPa | 0 mm | - | 0 W/m² | - |
| 1777866524 | 17.22° C | 61% | 1008.8 hPa | 0 mm | - | 0 W/m² | - |
| 1777866222 | 17.22° C | 60% | 1008.7 hPa | 0 mm | - | 0 W/m² | - |
* Rain latest hour (hover to see other rain measurements)
** Current wind speed in m/s (hover to see current wind gust speed)